Probability
0 0 0 0 0 0 0 0 0 0 1 2 3 3 3 3 2 1 2 3 3 3 3 3 3 1 0 0 0 0 0 1 3 3 3 3 3 4 4 4 4 3 4
0 0 0 0 0 0 0 0 0 0 1 2 3 3 3 3 3 2 3 3 3 4 4 4 3 2 1 0 0 0 0 2 3 3 3 3 3 4 5 5 4 3 3
0 1 1 0 0 0 0 0 0 0 2 3 3 3 3 3 3 3 3 3 3 4 5 4 4 4 2 2 1 0 0 2 3 3 3 3 3 4 6 5 4 2 1
1 1 1 0 0 0 0 0 1 1 2 3 3 3 3 3 3 3 3 3 3 3 3 4 5 6 4 3 2 1 1 2 3 2 2 2 3 4 5 4 2 1 0
1 1 1 0 0 0 0 0 1 2 3 2 2 2 2 2 2 2 2 3 3 3 2 2 4 5 5 4 3 2 1 2 3 2 1 1 1 3 4 3 1 0 0
1 0 0 0 0 0 0 0 1 2 3 2 1 1 1 1 1 1 1 1 2 2 2 2 2 2 3 5 4 3 3 3 4 4 2 1 0 2 4 3 1 0 0
0 0 0 0 0 0 0 0 0 1 2 1 0 0 0 0 0 0 0 0 1 1 2 2 1 1 2 4 4 3 3 4 6 6 4 2 1 1 3 4 2 1 0
0 0 0 0 0 0 0 0 0 0 0 0 0 0 0 0 0 0 0 0 0 0 1 1 2 2 3 3 4 4 3 5 7 8 6 5 3 2 2 3 2 2 1
0 0 0 0 0 0 0 0 0 0 0 1 1 0 1 1 1 1 0 0 0 0 1 1 2 3 3 3 3 3 3 5 7 7 6 6 5 4 3 2 2 2 2
0 0 0 0 0 0 0 0 0 0 1 2 2 2 2 2 2 1 0 0 0 0 1 2 2 3 2 2 3 3 3 4 5 5 4 4 4 5 4 3 2 2 1
0 0 0 0 0 0 0 0 0 1 2 3 3 3 3 4 4 2 1 0 0 0 1 1 2 2 2 3 3 2 2 2 3 3 3 2 2 3 3 4 4 3 2
0 0 0 0 0 0 0 0 1 1 3 4 4 4 4 5 5 4 2 1 0 0 0 0 1 1 2 3 3 1 1 1 2 3 3 2 2 2 3 5 6 5 5
0 0 0 0 0 0 0 1 2 2 3 4 5 6 5 4 4 3 2 1 0 0 0 0 0 0 1 2 2 1 0 0 0 1 1 1 1 2 3 5 6 5 5
0 0 0 1 1 1 2 3 3 3 3 3 4 4 4 3 3 2 1 0 0 0 1 0 0 0 0 1 1 0 1 1 0 0 0 0 0 1 1 2 4 5 4
1 1 1 2 3 3 5 6 4 3 3 3 3 3 4 4 3 2 1 0 0 0 1 1 0 0 0 0 0 1 2 1 0 0 0 0 0 0 0 0 2 3 3
3 3 3 4 4 5 6 5 4 3 3 3 3 4 6 5 4 4 3 2 1 1 2 2 1 0 0 0 0 1 1 1 0 0 0 0 0 0 0 0 0 1 1
5 5 4 4 4 4 4 3 3 3 3 3 4 6 7 7 6 6 6 6 5 5 5 5 3 1 0 0 0 0 0 0 0 0 0 0 0 0 0 0 0 0 0
5 5 4 2 2 3 3 3 2 2 3 4 5 6 7 7 7 8 9 10 10 9 8 6 4 1 0 0 0 0 0 0 0 0 0 0 0 0 0 0 0 0 0
6 5 4 3 2 4 6 6 5 5 5 6 7 7 7 7 8 9 12 13 13 12 9 6 3 2 1 0 0 0 0 0 0 0 0 0 0 0 0 0 0 0 0
8 8 8 7 6 6 8 9 9 9 8 9 9 9 9 9 10 11 12 13 14 14 11 7 5 3 2 0 0 0 0 0 1 1 0 0 0 0 0 0 0 0 0
9 9 10 9 8 7 8 9 10 10 10 11 12 12 11 11 11 11 11 12 14 16 15 12 9 6 4 3 2 2 1 0 1 1 1 1 2 2 1 0 0 0 0
9 11 11 11 8 6 5 5 7 9 10 12 12 13 12 12 12 11 11 11 12 14 16 16 14 11 9 8 7 6 4 2 1 1 2 3 4 4 3 1 0 0 0
11 12 13 11 7 4 2 2 3 5 8 10 12 12 12 12 12 11 11 10 10 11 14 16 17 15 14 13 13 11 8 6 4 3 2 3 4 4 4 2 0 0 0
13 13 13 10 6 2 1 0 1 3 5 8 9 10 10 10 11 10 10 10 11 11 11 11 13 14 13 12 12 12 10 9 8 5 3 3 4 4 3 2 0 0 0
13 12 11 8 5 3 1 0 0 1 3 5 6 6 7 8 8 8 8 10 12 12 10 8 7 8 7 5 6 8 9 10 11 8 5 4 5 5 3 1 0 0 0
12 11 9 7 6 4 2 1 0 0 2 4 4 4 5 6 7 6 7 10 12 12 10 8 6 4 3 1 1 4 7 10 12 10 7 6 6 5 3 1 0 0 0
Wind_Speed
2 2 1 1 1 1 2 2 2 2 2 2 2 2 2 2 2 2 1 4 5 5 5 5 5 5 6 5 5 5 6 6 6 5 6 6 7 7 8 9 9 9 8
2 2 1 1 1 1 1 2 2 2 1 2 2 2 2 2 2 2 1 2 4 5 5 6 6 6 6 6 6 6 6 7 6 6 6 6 6 7 7 8 9 9 9
2 2 1 1 1 1 2 2 2 2 2 2 2 1 1 1 2 2 2 2 2 4 5 6 6 6 6 7 7 7 7 7 7 7 7 6 6 6 6 7 7 8 9
3 2 1 1 1 2 2 2 2 2 1 1 1 0 0 1 2 2 2 2 2 2 4 6 6 6 6 7 7 7 7 7 7 7 7 7 7 7 7 7 7 7 8
3 2 2 2 2 2 2 2 2 2 1 1 0 0 0 1 2 2 3 3 3 3 3 4 6 7 8 8 8 8 7 7 7 7 8 9 9 8 8 8 8 8 8
3 3 2 2 2 2 2 2 2 2 1 1 1 1 1 1 1 2 3 2 3 4 4 4 3 4 8 8 8 8 9 8 7 8 9 9 9 9 8 9 8 8 9
3 3 2 2 2 2 2 2 2 2 1 1 1 1 1 1 2 2 2 2 3 4 4 4 3 4 4 7 8 8 9 9 8 8 8 9 9 9 8 9 9 9 9
3 3 3 2 2 2 2 3 2 2 1 1 2 1 2 3 2 1 1 2 3 2 4 5 4 4 4 3 4 7 8 8 9 8 8 8 8 8 8 9 9 9 10
2 2 3 3 3 3 3 3 3 3 2 1 1 2 1 1 2 2 1 1 2 2 3 3 4 4 4 3 4 5 7 7 8 7 7 6 7 7 7 8 9 9 9
1 2 3 3 3 3 3 3 3 3 3 2 1 1 1 2 1 2 2 1 1 2 3 3 3 3 3 3 4 6 6 6 7 7 7 6 5 5 6 7 8 8 8
1 1 2 3 3 3 3 3 3 3 3 3 2 1 1 1 1 1 2 3 2 2 2 2 2 2 3 3 4 5 6 6 5 5 6 6 6 5 5 6 7 8 8
0 1 2 2 3 2 3 3 3 4 3 3 2 2 2 2 2 2 2 2 3 3 2 2 2 3 2 3 5 5 6 5 5 5 5 5 5 5 5 6 7 7 8
1 1 1 1 1 2 3 3 3 3 4 3 3 2 2 2 2 2 2 2 2 2 2 1 2 2 2 2 3 5 4 4 4 4 4 4 4 4 4 4 5 6 7
2 2 2 2 2 2 2 2 2 2 2 3 3 3 2 2 2 2 2 2 1 2 2 3 1 1 2 2 2 3 2 2 3 3 3 4 3 4 4 4 3 4 4
2 2 2 2 2 2 2 3 2 2 2 2 3 2 2 2 2 2 2 2 2 2 3 3 2 1 1 1 2 2 2 2 3 3 3 3 3 3 3 3 3 3 4
3 3 3 3 2 2 2 2 2 2 2 2 2 2 2 2 2 2 2 2 3 3 3 2 2 2 1 1 1 2 2 3 3 3 3 3 3 3 3 3 3 4 4
3 3 3 3 3 2 2 2 2 2 2 1 1 2 2 2 1 1 2 2 2 2 3 3 2 1 1 2 1 1 2 2 2 3 3 3 3 3 3 3 3 4 4
3 3 3 3 3 3 3 3 3 2 2 2 2 2 2 1 2 2 1 2 2 3 3 4 2 1 2 2 2 2 2 2 2 4 4 3 3 3 3 3 3 4 4
2 2 3 3 3 3 3 3 3 2 2 2 2 2 2 2 2 2 2 2 2 2 2 3 3 1 1 1 1 2 2 2 3 3 3 4 4 4 4 4 4 4 5
3 3 3 3 3 3 3 3 3 3 2 2 2 2 3 3 3 3 2 2 2 1 2 2 2 2 1 1 1 2 2 2 2 2 2 2 2 3 4 4 4 5 5
3 3 3 3 3 2 3 3 3 3 3 2 2 2 3 3 4 3 2 2 2 2 2 2 2 2 2 1 2 2 2 2 2 2 2 2 2 2 2 3 4 5 5
3 3 3 3 3 2 3 4 3 3 3 3 2 2 2 3 3 3 3 3 3 3 3 3 3 3 4 3 3 2 2 2 2 1 2 3 2 3 3 2 3 4 5
3 3 3 3 3 2 3 3 4 3 2 2 2 2 2 2 1 1 1 2 2 3 5 5 5 5 4 4 3 3 3 3 3 2 2 3 2 3 3 3 4 5 5
4 4 3 3 3 3 3 4 3 2 2 2 3 3 2 2 2 1 1 1 2 2 3 4 4 5 5 4 4 4 4 3 3 2 2 3 2 3 3 3 5 6 5
3 3 3 4 3 3 4 4 3 2 1 2 2 2 2 2 2 2 1 1 2 3 3 2 3 4 4 4 3 2 2 2 2 2 2 2 2 2 3 3 4 5 5
3 3 2 2 3 3 3 4 3 2 1 1 1 1 1 2 2 2 2 2 2 3 3 3 3 3 3 2 2 3 3 3 2 2 2 2 1 1 2 2 2 2 3
Wind_Direction
104 91 90 79 73 82 92 97 100 101 104 109 130 138 149 159 164 166 178 191 193 198 195 195 198 200 202 202 205 212 219 221 218 214 213 218 216 217 218 218 215 210 209
126 112 100 89 89 103 114 116 122 116 110 113 116 129 150 166 167 175 194 209 207 206 213 212 210 211 213 216 217 222 230 230 226 222 220 221 221 225 228 225 221 216 213
140 135 118 103 101 98 98 95 89 97 107 102 102 124 157 182 191 196 202 209 221 222 221 219 217 218 219 224 225 227 233 233 229 224 221 222 223 227 229 229 226 220 216
153 146 140 143 120 103 101 103 98 98 93 92 97 112 171 219 223 215 210 213 218 232 234 230 228 229 232 239 240 240 240 235 227 223 222 223 224 226 229 233 229 222 217
166 155 156 147 126 113 110 125 108 118 118 96 85 43 271 240 245 229 220 221 220 225 232 245 245 241 241 244 246 246 248 244 236 235 235 233 231 229 231 232 228 223 219
171 155 154 145 131 124 119 118 126 117 131 140 102 33 315 268 245 236 236 232 228 227 227 233 246 255 251 251 251 248 250 250 244 245 244 241 239 235 230 229 228 225 224
174 166 162 153 146 148 151 140 128 119 111 108 88 16 337 292 250 239 234 233 239 238 230 230 231 239 255 258 253 249 253 252 249 250 249 245 242 239 232 229 227 227 227
179 177 167 166 161 150 144 144 134 125 118 116 121 86 352 340 334 277 243 231 242 241 239 236 225 229 240 248 251 250 252 254 257 254 252 248 245 244 238 235 229 227 226
187 180 172 166 168 163 172 174 164 156 164 160 148 147 150 261 312 316 281 259 255 245 247 243 231 227 229 236 250 256 258 259 260 259 257 250 244 242 238 235 227 225 222
175 179 176 173 177 175 180 188 179 171 166 180 175 180 180 169 188 313 319 310 283 258 258 252 239 230 229 234 240 241 249 256 261 261 264 258 249 243 238 234 227 224 222
166 171 170 172 177 180 186 188 178 178 176 178 177 168 148 132 176 206 288 315 317 281 267 255 249 243 236 237 243 243 247 252 259 262 260 259 258 254 247 237 233 232 230
166 176 171 175 183 184 193 197 192 187 188 186 181 175 170 172 192 197 238 277 294 293 285 259 250 250 242 241 245 245 244 249 254 261 267 265 265 262 256 249 242 239 236
204 229 198 187 192 196 196 191 185 191 190 188 190 195 194 202 186 185 204 252 277 291 298 277 248 245 246 241 251 247 243 241 247 255 261 263 264 259 258 256 249 244 236
213 213 195 190 197 193 191 174 180 197 190 198 205 197 200 216 196 193 193 199 273 292 287 283 289 251 252 244 253 243 248 238 248 259 262 257 257 253 252 253 241 236 224
206 200 191 194 203 194 184 168 176 198 191 200 208 203 210 224 207 206 200 191 203 264 283 278 289 301 265 239 242 233 243 252 247 253 260 261 255 248 248 242 231 224 214
200 183 188 194 196 193 185 169 185 207 194 211 209 201 217 229 224 210 206 207 206 217 259 273 266 287 289 270 226 236 248 253 257 264 265 269 257 246 239 240 236 231 225
197 194 191 188 187 188 188 177 195 202 204 224 222 206 233 228 229 233 213 205 208 203 244 277 270 288 269 274 279 261 247 252 264 259 261 260 253 244 228 227 234 234 227
202 196 183 183 191 193 192 187 204 210 205 220 224 211 242 237 228 238 223 222 218 210 225 265 283 282 263 265 277 274 273 263 257 259 251 245 247 246 241 234 233 231 230
190 189 181 190 200 197 194 196 203 217 219 221 220 217 237 231 251 256 243 238 237 228 221 238 266 268 279 282 292 285 280 281 275 266 246 244 242 241 241 238 233 230 228
188 200 194 192 196 197 202 200 195 204 214 225 228 225 229 227 234 242 245 241 238 242 234 238 258 269 262 264 248 271 290 287 282 283 273 268 252 244 247 242 237 231 226
200 199 192 192 195 197 209 198 195 200 207 220 236 237 235 234 234 235 237 230 224 237 244 250 264 269 262 250 252 249 265 285 276 260 270 269 260 259 256 246 242 237 229
190 189 194 191 198 217 211 200 192 198 207 215 234 254 257 253 249 245 238 232 220 226 235 239 251 253 256 249 246 237 243 274 280 248 240 261 236 254 258 246 248 236 233
184 191 199 192 199 214 204 197 189 188 204 222 233 243 258 270 254 261 264 268 261 245 227 228 243 250 252 245 235 239 234 238 250 247 222 255 241 255 259 254 244 238 233
188 192 194 196 196 213 196 189 178 169 186 222 233 229 232 254 257 234 242 301 293 282 254 236 244 258 258 251 228 232 237 245 254 236 209 246 250 259 271 260 242 237 234
189 190 189 187 185 202 190 181 168 163 186 228 236 229 225 242 256 214 187 253 294 301 302 288 271 276 280 272 241 222 224 235 263 254 202 231 257 270 266 260 253 241 237
183 173 170 183 185 192 183 169 162 160 200 242 265 268 241 229 244 215 205 223 265 286 311 326 326 324 317 313 260 221 224 231 249 255 201 211 237 257 271 255 265 263 251